Location: Blériot-Plage
(50.9575°N, 1.8224°E)
Time: 04:49:59
(UTC+00:00)

Cosmos 1437 Rocket - Pass Details

Date: 15 May 2026
Orbit: 439 x 476 km, 81.2° (Epoch: 6 June)

Event Time Altitude Azimuth Distance (km) Brightness Sun altitude
Exits shadow 21:36:19 - 213° (SSW) 2,109 5.6 -14.2°
Reaches altitude 10° 21:37:32 10° 218° (SW) 1,626 5.0 -14.3°
Maximum altitude 21:40:53 38° 288° (WNW) 739 3.9 -14.6°
Drops below altitude 10° 21:44:18 10° 359° (N) 1,656 6.2 -14.8°
Sets 21:46:32 0° 7° (N) 2,544 7.1 -15.0°
